Showing default

HBTSS-SV2, 58955

Orbit data source: Space-Track

HBTSS-SV2, 58955 is a payload satellite owned by MDA (US) in LEO that was launched on Wed, 14 Feb 2024 UTC via an FALCON 9 launch vehicle from the Air Force Eastern Test Range (AFETR). Payload-class satellites include a variety of spacecraft equipped with specific instruments for various scientific and technological missions. These include communications satellites like Starlink; space stations such as the ISS; scientific satellites like the Hubble; Earth observation satellites from companies like Planet Labs, Umbra, and HawkEye 360; GPS; miniature CubeSats for education and research; and military/defense satellites.

Loading next visibility...
Identifier
58955, 2024-028A
Orbit
LEO
Country
Flag of USUS
Related business
Manufacturer
NGIS
Mission
Operational Commercial Early Warn
Bus & Motor
HBT-NG, Unknown motor
Mass
~1,000 kg wet, ~1,000 kg dry
Launch date (UTC)
2024-02-14 (2 years ago)
Launch vehicle
FALCON 9
Launch site
Air Force Eastern Test Range (AFETR)
Object type
Payload
Rocket body
Debris
Shape & HBR
Box + 2 Pan, 1.0 m
Radar Cross Section
1.012 m², Large (>1 m²)

Expand to show TLE details & history
Last TLE update: 11 hours ago

TLE from 11 hours ago
0 HBTSS-SV2
1 58955U 24028A   25352.54888426 -.00000021  00000-0  63463-4 0  9990
2 58955  39.9890 153.7799 0020395 284.1261  75.7219 13.70421385 92282
Epoch: 2025-12-18T13:10Z
TLE epoch observation values (Epoch: 2025-12-18T13:10:23.600Z)
Latitude
-0.00002°
Longitude
-131.22125°
Altitude
993.859 km
Speed
7.358 km/s
True Right ascension
10h 15m 07s
True Declination
0° 00' 00"
Sunlit
Object was in daylight at epoch
Visualization orbit readout
Latitude
Unknown
Longitude
Unknown
Altitude
Unknown
Speed
Unknown
Apparent Right ascension
Unknown
Apparent Declination
Unknown
Sunlit
N/A
Visualization observer readout
Local Sidereal Time
22:42:57
Azimuth
Unknown
Elevation
Unknown
Doppler factor
Unknown
Orbital elements
Apogee altitude
1,015.384 km
Perigee altitude
985.287 km
Semi-major axis
7,378.473 km
Eccentricity
0.00204
Inclination
39.989°
RAAN
153.7799°
Arg. of periapsis
284.1261°
True anomaly
75.94853°
Mean anomaly
75.7219°
Eccentric anomaly
75.8352°
Mean motion
3.42447 °/min
Orbital period
105.13 mins
BSTAR
0.000063463
Loading maneuver chart data...
Computing Atmospheric mass density...
Loading historical data...
Loading historical data...
Loading historical data...
Loading historical data...
Loading historical data...
Loading historical data...
Loading historical data...
Other satellites on launch #28 in the year 2024 (2024-02-14 UTC)

Documentation

Showing up to 5 results
|